Satellite-Ground Cal/Val Site Overpasses Predictions

Prediction of Satellite NPP Overpassing Cal/Val Site: Antarctic Dome C

Ground Cal/Val Site Location: Latitude: -75.10, Longitude: 123.35; Satellite-Ground Site NADIR distance within 100 km.

Table of predicted overpasses for the next 14.0 days since TLE Epoch: 4/6/2019
Interval Starting Time Ending Time Minimum Distance Time Minimum Distance (km)
1 04/06/2019 07:31:03 04/06/2019 07:31:32 04/06/2019 07:31:17 2.33
2 04/09/2019 14:54:27 04/09/2019 14:54:55 04/09/2019 14:54:41 19.82
3 04/10/2019 14:35:45 04/10/2019 14:35:59 04/10/2019 14:35:52 87.13
4 04/11/2019 07:37:16 04/11/2019 07:37:43 04/11/2019 07:37:29 33.90
5 04/12/2019 07:18:30 04/12/2019 07:18:49 04/12/2019 07:18:39 76.35
6 04/14/2019 15:00:42 04/14/2019 15:01:06 04/14/2019 15:00:54 56.48
7 04/15/2019 14:41:51 04/15/2019 14:42:16 04/15/2019 14:42:03 52.71
8 04/16/2019 07:43:32 04/16/2019 07:43:53 04/16/2019 07:43:42 68.75
9 04/17/2019 07:24:38 04/17/2019 07:25:05 04/17/2019 07:24:51 39.42


NCC Satellite Cal/Val Overpasses Prediction Service
